Weather History for Westhampton Beach, NY

Change the Weather History Date:

Sunday, February 17, 2013

  Actual Average Record
Temperature  
Mean Temperature 24 °F -  
Max Temperature 30 °F 38 °F 57 °F (2006)
Min Temperature 19 °F 21 °F 7 °F (2014)
Degree Days  
Heating Degree Days 40    
Moisture  
Dew Point 13 °F    
Average Humidity 59    
Maximum Humidity 80    
Minimum Humidity 29    
Precipitation  
Precipitation 0.00 in - - ()
Sea Level Pressure  
Sea Level Pressure 29.66 in    
Wind  
Wind Speed 18 mph (NNW)    
Max Wind Speed 31 mph    
Max Gust Speed 45 mph    
Visibility 6 miles    
Events Snow    
Averages and records for this station are not official NWS values.
T = Trace of Precipitation, MM = Missing Value Source: NWS Daily Summary

Daily Weather History Graph

Daily Weather History Graph

Search for Another Location

Airport:

Trip Planner

Search our weather history database for the weather conditions in past years. The results will help you decide how hot, cold, wet, or windy it might be!

Date:

Astronomy

Feb. 17, 2013 Rise Set
Actual Time 6:41 AM EST 5:27 PM EST
Civil Twilight 6:13 AM EST 5:55 PM EST
Nautical Twilight 5:41 AM EST 6:27 PM EST
Astronomical Twilight 5:09 AM EST 6:59 PM EST
Moon 10:29 AM EST (2/17) 12:23 AM EST (2/17)
Length of Visible Light 11h 42m
Length of Day
10h 46m
Waxing Crescent, 49% of the Moon is Illuminated
Feb 17
Waxing Crescent
Feb 17
First Quarter
Feb 25
Full
Mar 4
Last Quarter
Mar 11
New

Hourly Weather History & Observations

Time (EST) Temp. Windchill Dew Point Humidity Pressure Visibility Wind Dir Wind Speed Gust Speed Precip Events Conditions
12:07 AM 30.2 °F 20.2 °F 24.8 °F 80% 29.68 in 3.0 mi North 12.7 mph 20.7 mph 0.00 in Snow Light Snow
12:15 AM 30.2 °F 18.9 °F 24.8 °F 80% 29.69 in 4.0 mi North 16.1 mph 21.9 mph 0.00 in Snow Light Snow
12:35 AM 30.2 °F 19.3 °F 24.8 °F 80% 29.68 in 2.5 mi North 15.0 mph 25.3 mph 0.00 in Snow Light Snow
12:50 AM 30.2 °F 18.9 °F 23.0 °F 75% 29.67 in 3.0 mi North 16.1 mph 25.3 mph 0.00 in Snow Light Snow
12:53 AM 30.0 °F 19.1 °F 23.0 °F 75% 29.67 in 3.0 mi North 15.0 mph 25.3 mph 0.00 in Snow Light Snow
1:00 AM 28.4 °F 16.2 °F 23.0 °F 80% 29.66 in 2.0 mi North 17.3 mph 24.2 mph 0.00 in Snow Light Snow
1:08 AM 28.4 °F 17.0 °F 23.0 °F 80% 29.66 in 1.8 mi North 15.0 mph 24.2 mph 0.00 in Snow Light Snow
1:37 AM 28.4 °F 17.0 °F 23.0 °F 80% 29.65 in 2.0 mi North 15.0 mph 25.3 mph 0.00 in Snow Light Snow
1:53 AM 28.9 °F 16.9 °F 21.9 °F 75% 29.65 in 2.0 mi North 17.3 mph 25.3 mph 0.00 in Snow Light Snow
2:05 AM 28.4 °F 16.2 °F 21.2 °F 74% 29.65 in 1.8 mi NNW 17.3 mph 21.9 mph 0.00 in Snow Light Snow
2:13 AM 28.4 °F 15.4 °F 21.2 °F 74% 29.64 in 2.0 mi North 19.6 mph 27.6 mph 0.00 in Snow Light Snow
2:27 AM 26.6 °F 13.4 °F 21.2 °F 80% 29.63 in 1.5 mi North 18.4 mph 31.1 mph 0.00 in Snow Light Snow
2:36 AM 26.6 °F 12.7 °F 21.2 °F 80% 29.64 in 1.2 mi NNW 20.7 mph 35.7 mph 0.00 in Snow Light Snow
2:53 AM 26.1 °F 12.3 °F 19.9 °F 78% 29.64 in 1.0 mi NNW 19.6 mph 35.7 mph 0.00 in Snow Light Snow
3:30 AM 24.8 °F 11.9 °F 19.4 °F 80% 29.61 in 1.8 mi North 16.1 mph 25.3 mph 0.00 in Snow Light Snow
3:38 AM 26.6 °F 13.8 °F 19.4 °F 74% 29.62 in 2.0 mi North 17.3 mph 26.5 mph 0.00 in Snow Light Snow
3:53 AM 26.1 °F 13.6 °F 19.9 °F 78% 29.61 in 2.0 mi North 16.1 mph 26.5 mph 0.00 in Snow Light Snow
4:12 AM 26.6 °F 13.8 °F 19.4 °F 74% 29.60 in 3.0 mi North 17.3 mph 34.5 mph 0.00 in Snow Light Snow
4:53 AM 27.0 °F 12.8 °F 16.0 °F 63% 29.61 in 8.0 mi North 21.9 mph 32.2 mph 0.00 in   Overcast
5:53 AM 27.0 °F 14.3 °F 12.9 °F 56% 29.58 in 10.0 mi North 17.3 mph 27.6 mph 0.00 in   Overcast
6:53 AM 27.0 °F 12.5 °F 8.1 °F 45% 29.57 in 10.0 mi NNW 23.0 mph 28.8 mph 0.00 in   Overcast
7:53 AM 25.0 °F 10.9 °F 7.0 °F 46% 29.57 in 10.0 mi NW 19.6 mph 31.1 mph 0.00 in   Overcast
8:53 AM 25.0 °F 10.2 °F 6.1 °F 45% 29.57 in 10.0 mi NW 21.9 mph 34.5 mph N/A   Mostly Cloudy
9:53 AM 25.0 °F 11.3 °F 6.1 °F 45% 29.57 in 9.0 mi NW 18.4 mph 38.0 mph N/A   Scattered Clouds
10:53 AM 26.1 °F 11.3 °F 6.1 °F 43% 29.58 in 10.0 mi NW 23.0 mph 33.4 mph 0.00 in   Clear
11:53 AM 28.0 °F 12.0 °F 6.1 °F 39% 29.58 in 7.0 mi NW 31.1 mph 44.9 mph 0.00 in   Clear
12:53 PM 28.9 °F 14.3 °F 3.9 °F 35% 29.60 in 10.0 mi NW 26.5 mph 43.7 mph 0.00 in   Clear
1:53 PM 30.0 °F 16.0 °F 3.0 °F 32% 29.61 in 10.0 mi NW 25.3 mph 43.7 mph N/A   Clear
2:53 PM 30.9 °F 16.2 °F 1.9 °F 29% 29.62 in 10.0 mi WNW 29.9 mph 41.4 mph N/A   Clear
3:53 PM 30.0 °F 16.6 °F 3.0 °F 32% 29.65 in 10.0 mi WNW 23.0 mph 38.0 mph N/A   Clear
4:53 PM 28.9 °F 15.4 °F 1.9 °F 32% 29.68 in 10.0 mi WNW 21.9 mph 35.7 mph N/A   Clear
5:53 PM 27.0 °F 12.8 °F 3.0 °F 36% 29.73 in 10.0 mi WNW 21.9 mph 28.8 mph N/A   Clear
6:53 PM 25.0 °F 9.5 °F 3.0 °F 39% 29.77 in 10.0 mi WNW 24.2 mph 33.4 mph N/A   Clear
7:53 PM 23.0 °F 7.2 °F 1.9 °F 40% 29.79 in 10.0 mi WNW 23.0 mph 33.4 mph N/A   Clear
8:53 PM 21.9 °F 8.2 °F 1.9 °F 42% 29.82 in 10.0 mi WNW 16.1 mph 35.7 mph N/A   Clear
9:53 PM 19.9 °F 3.5 °F 1.0 °F 44% 29.84 in 10.0 mi WNW 21.9 mph 36.8 mph N/A   Clear
10:53 PM 19.0 °F 2.0 °F 1.0 °F 46% 29.86 in 10.0 mi WNW 23.0 mph 40.3 mph N/A   Clear